This is the latest recevied weather packets stored in our database for station/object KE8AFF-13. If no packets are shown the sender has not sent any weather packets the latest 10 day(s).
| Time | Temp. | Humidity | Pressure | Rain* | Wind** | Luminosity | Snow |
|---|---|---|---|---|---|---|---|
| 1777402665 | 20° C | 71% | 1012.6 hPa | 0 mm | - | 714 W/m² | - |
| 1777402364 | 20° C | 69% | 1012.5 hPa | 0 mm | - | 683 W/m² | - |
| 1777402063 | 20° C | 69% | 1012.6 hPa | 0 mm | - | 731 W/m² | - |
| 1777401759 | 20° C | 69% | 1012.4 hPa | 0 mm | - | 246 W/m² | - |
| 1777401454 | 20° C | 69% | 1012.5 hPa | 0 mm | - | 758 W/m² | - |
| 1777401149 | 20° C | 69% | 1012.4 hPa | 0 mm | - | 738 W/m² | - |
| 1777400845 | 20° C | 70% | 1012.4 hPa | 0 mm | - | 805 W/m² | - |
| 1777400542 | 20.56° C | 68% | 1012.4 hPa | 0 mm | - | 551 W/m² | - |
| 1777400239 | 20° C | 71% | 1012.3 hPa | 0 mm | - | 794 W/m² | - |
| 1777399935 | 20° C | 68% | 1012.2 hPa | 0 mm | - | 189 W/m² | - |
| 1777399632 | 20° C | 70% | 1012.4 hPa | 0 mm | - | 799 W/m² | - |
| 1777399329 | 20° C | 70% | 1012.4 hPa | 0 mm | - | 745 W/m² | - |
| 1777399027 | 20.56° C | 70% | 1012.6 hPa | 0 mm | - | 350 W/m² | - |
| 1777398724 | 20° C | 70% | 1012.6 hPa | 0 mm | - | 789 W/m² | - |
| 1777398421 | 20° C | 69% | 1012.6 hPa | 0 mm | - | 705 W/m² | - |
| 1777398117 | 20° C | 72% | 1012.4 hPa | 0 mm | - | 752 W/m² | - |
| 1777397814 | 19.44° C | 75% | 1012.4 hPa | 0 mm | - | 673 W/m² | - |
| 1777397509 | 20° C | 74% | 1012.4 hPa | 0 mm | - | 796 W/m² | - |
| 1777397206 | 19.44° C | 75% | 1012.2 hPa | 0 mm | - | 795 W/m² | - |
| 1777396903 | 19.44° C | 75% | 1012.6 hPa | 0 mm | - | 536 W/m² | - |
| 1777396599 | 20° C | 75% | 1012.4 hPa | 0 mm | - | 500 W/m² | - |
| 1777396296 | 20° C | 75% | 1012.4 hPa | 0 mm | - | 862 W/m² | - |
| 1777395992 | 19.44° C | 76% | 1012.6 hPa | 0 mm | - | 655 W/m² | - |
| 1777395687 | 19.44° C | 77% | 1012.4 hPa | 0 mm | - | 762 W/m² | - |
| 1777395383 | 18.89° C | 76% | 1012.4 hPa | 0 mm | - | 760 W/m² | - |
* Rain latest hour (hover to see other rain measurements)
** Current wind speed in m/s (hover to see current wind gust speed)